1327881628158,57.4076
1327881688158,57.5544
1327881748158,57.3742
1327881808158,57.5113
1327881868158,57.4967
1327881928158,57.3258
1327881988158,57.4684
1327882048158,57.5389
1327882108158,57.3344
1327882168158,57.3807
1327882228158,57.5602
1327882288158,57.5074
1327882348158,57.3873
1327882408158,57.4539
1327882468158,57.5509
1327882528158,57.4831
1327882588158,57.5191
1327882648158,57.4567
1327882708158,57.5031
1327882768158,57.3803
1327882828158,57.6429
1327882888158,57.4228
1327882948158,57.6122
1327883008158,57.7304
1327883068158,57.3795
1327883128158,57.5710
1327883188158,57.6448
1327883248158,57.5694
1327883308158,57.4808
1327883368158,57.5737
1327883428158,57.5506
1327883488158,57.5457
1327883548158,57.6682
1327883608158,57.5648
1327883668158,57.4936
1327883728158,57.6051
1327883788158,57.4648
1327883848158,57.3444
1327883908158,57.5257
1327883968158,57.4294
1327884028158,57.5813
1327884088158,57.4766
1327884148158,57.5319
1327884208158,57.4187
1327884268158,57.5171
1327884328158,57.3752
1327884388158,57.5251
1327884448158,57.4344
1327884508158,57.5187
1327884568158,57.3494
1327884628158,57.5793
1327884688158,57.5441
1327884748158,57.4694
1327884808158,57.4882
1327884868158,57.3472
1327884928158,57.5299
1327884988158,57.4098
1327885048158,57.4724
1327885108158,57.4714
1327885168158,57.5605
1327885228169,57.5224
1327885288169,57.4535
1327885348169,57.5158
1327885408169,57.6037
1327885468169,57.4707
1327885528169,57.2408
1327885588169,57.4785
1327885648169,57.3784
1327885708169,57.5352
1327885768169,57.3644
1327885828169,57.4320
1327885888169,57.5226
1327885948169,57.3747
1327886008169,57.3135
1327886068169,57.3712
1327886128169,57.3520
1327886188169,57.4860
1327886248169,57.2881
1327886308169,57.5647
1327886368169,57.5142
1327886428169,57.4288
1327886488169,57.1736
1327886548169,57.3348
1327886608169,57.6044
1327886668169,57.5153
1327886728169,57.4130
1327886788169,57.4668
1327886848169,57.3738
1327886908169,57.4776
1327886968169,57.4746
1327887028169,57.4122
1327887088169,57.3620
1327887148169,57.5700
1327887208169,57.3109
1327887268169,57.5327
1327887328169,57.4815
1327887388169,57.3739
1327887448169,57.3938
1327887508169,57.6212
1327887568169,57.2903
1327887628169,57.5025
1327887688169,57.4843
1327887748169,57.5412
1327887808169,57.2848
1327887868169,57.5463
1327887928169,57.5508
1327887988169,57.6589
1327888048169,57.5201
1327888108169,57.4367
1327888168169,57.5526
1327888228169,57.5756
1327888288169,57.3077
1327888348169,57.6377
1327888408169,57.5495
1327888468169,57.3616
1327888528169,57.5489
1327888588169,57.5328
1327888648169,57.5396
1327888708169,57.5764
1327888768169,57.4799
1327888828180,57.6492
1327888888180,57.6517
1327888948180,57.6118
1327889008180,57.7087
1327889068180,57.5435
1327889128180,57.4819
1327889188180,57.4719
1327889248180,57.6315
1327889308180,57.6754
1327889368180,57.5793
1327889428180,57.4933
1327889488180,57.5368
1327889548180,57.7473
1327889608180,57.5524
1327889668180,57.6827
1327889728180,57.6234
1327889788180,57.6391
1327889848180,57.6533
1327889908180,57.5829
1327889968180,57.5360
1327890028180,57.5612
1327890088180,57.3629
1327890148180,57.4838
1327890208180,57.6535
1327890268180,57.5751
1327890328180,57.5857
1327890388180,57.5017
1327890448180,57.5570
1327890508180,57.6168
1327890568180,57.4006
1327890628180,57.5928
1327890688180,57.4998
1327890748180,57.5772
1327890808180,57.4407
1327890868180,57.4859
1327890928180,57.4279
1327890988180,57.3717
1327891048180,57.3442
1327891108180,57.6210
1327891168180,57.6431
1327891228180,57.5700
1327891288180,57.6369
1327891348180,57.6154
1327891408180,57.5505
1327891468180,57.6784
1327891528180,57.5170
1327891588180,57.5018
1327891648180,57.5035
1327891708180,57.4067
1327891768180,57.3744
1327891828180,57.3728
1327891888180,57.4081
1327891948180,57.3991
1327892008180,57.4829
1327892068180,57.4525
1327892128180,57.4540
1327892188180,57.5685
1327892248180,57.4966
1327892308180,57.5809
1327892368180,57.6315
1327892428191,57.5442
1327892488191,57.4814
1327892548191,57.3462
1327892608191,57.6577
1327892668191,57.4626
1327892728191,57.5046
1327892788191,57.6431
1327892848191,57.5569
1327892908191,57.5932
1327892968191,57.5051
1327893028191,57.4914
1327893088191,57.5316
1327893148191,57.4419
1327893208191,57.6144
1327893268191,57.3647
1327893328191,57.4647
1327893388191,57.5624
1327893448191,57.4637
1327893508191,57.4027
1327893568191,57.5670
1327893628191,57.6491
1327893688191,57.3056
1327893748191,57.5091
1327893808191,57.5641
1327893868191,57.4093
1327893928191,57.6475
1327893988191,57.6630
1327894048191,57.3992
1327894108191,57.3729
1327894168191,57.3469
1327894228191,57.5293
1327894288191,57.3890
1327894348191,57.3954
1327894408191,57.5138
1327894468191,57.4296
1327894528191,57.4148
1327894588191,57.3776
1327894648191,57.4467
1327894708191,57.3175
1327894768191,57.5184
1327894828191,57.6145
1327894888191,57.3086
1327894948191,57.4777
1327895008191,57.2996
1327895068191,57.5777
1327895128191,57.3384
1327895188191,57.3603
1327895248191,57.3396
1327895308191,57.5744
1327895368191,57.4825
1327895428191,57.3998
1327895488191,57.3929
1327895548191,57.5100
1327895608191,57.5602
1327895668191,57.6582
1327895728191,57.3716
1327895788191,57.4459
1327895848191,57.3562
1327895908191,57.4898
1327895968191,57.4931
1327896028202,57.4057
1327896088202,57.4710
1327896148202,57.4505
1327896208202,57.6364
1327896268202,57.4011
1327896328202,57.5571
1327896388202,57.5204
1327896448202,57.4834
1327896508202,57.6348
1327896568202,57.5418
1327896628202,57.5059
1327896688202,57.5163
1327896748202,57.4653
1327896808202,57.5691
1327896868202,57.5402
1327896928202,57.5838
1327896988202,57.6013
1327897048202,57.4951
1327897108202,57.4967
1327897168202,57.5719
1327897228202,57.4873
1327897288202,57.5938
1327897348202,57.6382
1327897408202,57.5683
1327897468202,57.5586
1327897528202,57.7171
1327897588202,57.3878
1327897648202,57.6517
1327897708202,57.5060
1327897768202,57.6786
1327897828202,57.4495
1327897888202,57.6451
1327897948202,57.5358
1327898008202,57.5922
1327898068202,57.5492
1327898128202,57.5735
1327898188202,57.4954
1327898248202,57.6706
1327898308202,57.6782
1327898368202,57.6470
1327898428202,57.5728
1327898488202,57.6854
1327898548202,57.5233
1327898608202,57.6888
1327898668202,57.3321
1327898728202,57.3350
1327898788202,57.4737
1327898848202,57.2680
1327898908202,57.4960
1327898968202,57.4639
1327899028202,57.4841
1327899088202,57.3537
1327899148202,57.5201
1327899208202,57.3618
1327899268202,57.4815
1327899328202,57.3794
1327899388202,57.3330
1327899448202,57.3012
1327899508202,57.4108
1327899568202,57.3611
1327899628214,57.4344
1327899688214,57.3448
1327899748214,57.2917
1327899808214,57.4202
1327899868214,57.4375
1327899928214,57.5657
1327899988214,57.3940
1327900048214,57.2611
1327900108214,57.3916
1327900168214,57.3019
1327900228214,57.5075
1327900288214,57.3475
1327900348214,57.2353
1327900408214,57.2492
1327900468214,57.3394
1327900528214,57.3424
1327900588214,57.3347
1327900648214,57.5727
1327900708214,57.4513
1327900768214,57.3591
1327900828214,57.3441
1327900888214,57.3304
1327900948214,57.4575
1327901008214,57.5242
1327901068214,57.4866
1327901128214,57.4401
1327901188214,57.5298
1327901248214,57.5202
1327901308214,57.5029
1327901368214,57.3484
1327901428214,57.4710
1327901488214,57.4521
1327901548214,57.5122
1327901608214,57.5243
1327901668214,57.4722
1327901728214,57.4714
1327901788214,57.4677
1327901848214,57.5025
1327901908214,57.4665
1327901968214,57.4613
1327902028214,57.4300
1327902088214,57.4195
1327902148214,57.4730
1327902208214,57.4867
1327902268214,57.5720
1327902328214,57.4389
1327902388214,57.5162
1327902448214,57.7885
1327902508214,57.5136
1327902568214,57.6943
1327902628214,57.7117
1327902688214,57.4062
1327902748214,57.6498
1327902808214,57.7010
1327902868214,57.5382
1327902928214,57.5915
1327902988214,57.7118
1327903048214,57.7684
1327903108214,57.9102
1327903168214,57.8008
1327903228225,57.6806
1327903288225,57.8458
1327903348225,57.7253
1327903408225,57.7301
1327903468225,57.7321
1327903528225,57.7183
1327903588225,57.7938
1327903648225,57.7406
1327903708225,57.5931
1327903768225,57.7347
1327903828225,57.7166
1327903888225,57.8509
1327903948225,57.6785
1327904008225,57.8605
1327904068225,57.7636
1327904128225,57.8668
1327904188225,57.7293
1327904248225,57.8569
1327904308225,57.7130
1327904368225,57.7305
1327904428225,57.9105
1327904488225,57.7945
1327904548225,57.7839
1327904608225,57.7313
1327904668225,57.8047
1327904728225,57.7535
1327904788225,57.8070
1327904848225,57.7798
1327904908225,57.6743
1327904968225,57.7081
1327905028225,58.0373
1327905088225,57.8064
1327905148225,58.0288
1327905208225,57.9334
1327905268225,58.0190
1327905328225,57.9973
1327905388225,58.2113
1327905448225,57.8808
1327905508225,57.7668
1327905568225,57.8636
1327905628225,57.8539
1327905688225,57.9906
1327905748225,57.9059
1327905808225,57.9330
1327905868225,57.9282
1327905928225,57.9410
1327905988225,57.6568
1327906048225,57.7717
1327906108225,58.0890
1327906168225,57.9605
1327906228225,57.9077
1327906288225,57.7678
1327906348225,57.9337
1327906408225,57.9825
1327906468225,57.7197
1327906528225,57.9004
1327906588225,58.0169
1327906648225,57.8244
1327906708225,57.9075
1327906768225,57.8983
1327906828237,57.8968
1327906888237,57.8325
1327906948237,57.7422
1327907008237,57.7130
1327907068237,57.7695
1327907128237,57.8036
1327907188237,57.7537
1327907248237,57.8307
1327907308237,57.6739
1327907368237,57.6993
1327907428237,57.7882
1327907488237,57.7086
1327907548237,57.6683
1327907608237,57.7241
1327907668237,57.7220
1327907728237,57.8389
1327907788237,57.9283
1327907848237,57.8190
1327907908237,57.7089
1327907968237,57.8930
1327908028237,57.7453
1327908088237,57.6914
1327908148237,57.8412
1327908208237,57.9268
1327908268237,57.8538
1327908328237,57.8071
1327908388237,57.7058
1327908448237,57.7175
1327908508237,57.7704
1327908568237,57.7213
1327908628237,57.8126
1327908688237,57.8149
1327908748237,57.7600
1327908808237,57.8292
1327908868237,57.7116
1327908928237,57.8501
1327908988237,57.8853
1327909048237,57.7588
1327909108237,57.7306
1327909168237,57.8702
1327909228237,57.6670
1327909288237,57.7405
1327909348237,57.7362
1327909408237,57.7126
1327909468237,57.7600
1327909528237,57.7111
1327909588237,57.9022
1327909648237,57.7644
1327909708237,57.8000
1327909768237,57.7682
1327909828237,57.8018
1327909888237,57.9207
1327909948237,57.7478
1327910008237,57.7790
1327910068237,57.6468
1327910128237,57.7950
1327910188237,57.7822
1327910248237,57.7197
1327910308237,57.8247
1327910368237,57.7806
1327910428249,57.7629
1327910488249,57.6462
1327910548249,57.8263
1327910608249,57.6633
1327910668249,57.7414
1327910728249,57.6715
1327910788249,57.6978
1327910848249,57.6425
1327910908249,57.8183
1327910968249,57.6281
1327911028249,57.4345
1327911088249,57.5406
1327911148249,57.8288
1327911208249,57.5880
1327911268249,57.5643
1327911328249,57.7298
1327911388249,57.7254
1327911448249,57.7120
1327911508249,57.7610
1327911568249,57.7634
1327911628249,57.7013
1327911688249,57.7437
1327911748249,57.6697
1327911808249,57.7054
1327911868249,57.8190
1327911928249,57.7942
1327911988249,57.5968
1327912048249,57.7393
1327912108249,57.6653
1327912168249,57.7749
1327912228249,57.6541
1327912288249,57.9202
1327912348249,57.7914
1327912408249,57.5903
1327912468249,57.6878
1327912528249,57.7139
1327912588249,57.8150
1327912648249,57.6797
1327912708249,57.9275
1327912768249,57.6205
1327912828249,57.9305
1327912888249,57.5869
1327912948249,57.6808
1327913008249,57.6789
1327913068249,57.7559
1327913128249,57.8312
1327913188249,57.7834
1327913248249,57.7716
1327913308249,57.7690
1327913368249,57.7419
1327913428249,57.5777
1327913488249,57.5639
1327913548249,57.7254
1327913608249,57.6238
1327913668249,57.7430
1327913728249,57.6818
1327913788249,57.6637
1327913848249,57.7697
1327913908249,57.7434
1327913968249,57.6419
1327914028261,57.6465
1327914088261,57.7776
1327914148261,57.7796
1327914208261,57.7402
1327914268261,57.7660
1327914328261,57.7925
1327914388261,57.6503
1327914448261,57.7444
1327914508261,57.7577
1327914568261,57.7582
1327914628261,57.8172
1327914688261,57.8929
1327914748261,57.8374
1327914808261,57.8827
1327914868261,57.8359
1327914928261,57.8439
1327914988261,57.8232
1327915048261,58.2723
1327915108261,57.9101
1327915168261,57.8589
1327915228261,57.8291
1327915288261,57.7867
1327915348261,57.7724
1327915408261,57.6329
1327915468261,57.6857
1327915528261,57.6483
1327915588261,57.5874
1327915648261,57.6704
1327915708261,57.7366
1327915768261,57.7538
1327915828261,57.5322
1327915888261,57.8901
1327915948261,57.8219
1327916008261,57.6658
1327916068261,57.7936
1327916128261,57.8106
1327916188261,57.7171
1327916248261,57.6807
1327916308261,57.6527
1327916368261,57.5537
1327916428261,57.7363
1327916488261,57.6928
1327916548261,57.6519
1327916608261,57.7406
1327916668261,57.7695
1327916728261,57.5401
1327916788261,57.6950
1327916848261,57.6693
1327916908261,57.5907
1327916968261,57.6049
1327917028261,57.7110
1327917088261,57.7074
1327917148261,57.6024
1327917208261,57.6049
1327917268261,57.7187
1327917328261,57.6674
1327917388261,57.7283
1327917448261,57.5169
1327917508261,57.5588
1327917568261,57.5695
1327917628273,57.6243
1327917688273,57.6945
1327917748273,57.6658
1327917808273,57.6537
1327917868273,57.7176
1327917928273,57.5864
1327917988273,57.6839
1327918048273,57.5174
1327918108273,57.7171
1327918168273,57.6813
1327918228273,57.6880
1327918288273,57.6861
1327918348273,57.6584
1327918408273,57.6141
1327918468273,57.6915
1327918528273,57.5848
1327918588273,57.6966
1327918648273,57.6213
1327918708273,57.8212
1327918768273,57.6734
1327918828273,57.6896
1327918888273,57.6967
1327918948273,57.6748
1327919008273,57.7319
1327919068273,57.7045
1327919128273,57.5309
1327919188273,57.6518
1327919248273,57.6696
1327919308273,57.4509
1327919368273,57.7372
1327919428273,57.7344
1327919488273,57.7426
1327919548273,57.6933
1327919608273,57.7145
1327919668273,57.5762
1327919728273,57.7694
1327919788273,57.7292
1327919848273,57.5742
1327919908273,57.6123
1327919968273,57.4727
1327920028273,57.6542
1327920088273,57.7213
1327920148273,57.5333
1327920208273,57.5288
1327920268273,57.6125
1327920328273,57.5055
1327920388273,57.4914
1327920448273,57.6399
1327920508273,57.6011
1327920568273,57.5298
1327920628273,57.6259
1327920688273,57.5816
1327920748273,57.6324
1327920808273,57.5648
1327920868273,57.5668
1327920928273,57.5368
1327920988273,57.5569
1327921048273,57.5723
1327921108273,57.5873
1327921168273,57.4565
1327921228285,57.5209
1327921288285,57.4150
1327921348285,57.5327
1327921408285,57.4949
1327921468285,57.5674
1327921528285,57.3924
1327921588285,57.6497
1327921648285,57.5769
1327921708285,57.4081
1327921768285,57.4270
1327921828285,57.6602
1327921888285,57.5374
1327921948285,57.4604
1327922008285,57.5025
1327922068285,57.3034
1327922128285,57.4845
1327922188285,57.3537
1327922248285,57.3345
1327922308285,57.3835
1327922368285,57.5087
1327922428285,57.5563
1327922488285,57.4566
1327922548285,57.3766
1327922608285,57.4720
1327922668285,57.5341
1327922728285,57.4816
1327922788285,57.4424
1327922848285,57.3940
1327922908285,57.5023
1327922968285,57.4508
1327923028285,57.4276
1327923088285,57.3931
1327923148285,57.4935
1327923208285,57.3451
1327923268285,57.5863
1327923328285,57.3806
1327923388285,57.5015
1327923448285,57.5692
1327923508285,57.3513
1327923568285,57.4995
1327923628285,57.5505
1327923688285,57.4142
1327923748285,57.5323
1327923808285,57.2713
1327923868285,57.3939
1327923928285,57.4611
1327923988285,57.6338
1327924048285,57.4239
1327924108285,57.5370
1327924168285,57.3931
1327924228285,57.4674
1327924288285,57.5723
1327924348285,57.4933
1327924408285,57.2965
1327924468285,57.5212
1327924528285,57.5435
1327924588285,57.5221
1327924648285,57.4133
1327924708285,57.6265
1327924768285,57.5662
1327924828297,57.3332
1327924888297,57.5355
1327924948297,57.4663
1327925008297,57.4833
1327925068297,57.4175
1327925128297,57.5562
1327925188297,57.2787
1327925248297,57.6643
1327925308297,57.2868
1327925368297,57.5476
1327925428297,57.4588
1327925488297,57.3966
1327925548297,57.3057
1327925608297,57.3558
1327925668297,57.5202
1327925728297,57.4011
1327925788297,57.4114
1327925848297,57.4956
1327925908297,57.4074
1327925968297,57.4338
1327926028297,57.3975
1327926088297,57.4017
1327926148297,57.3712
1327926208297,57.2774
1327926268297,57.5483
1327926328297,57.3509
1327926388297,57.4563
1327926448297,57.3687
1327926508297,57.3141
1327926568297,57.2941
1327926628297,57.4156
1327926688297,57.4225
1327926748297,57.3720
1327926808297,57.3792
1327926868297,57.3734
1327926928297,57.4158
1327926988297,57.4107
1327927048297,57.4635
1327927108297,57.2429
1327927168297,57.4093
1327927228297,57.4461
1327927288297,57.2592
1327927348297,57.2793
1327927408297,57.3805
1327927468297,57.3882
1327927528297,57.4694
1327927588297,57.3510
1327927648297,57.4458
1327927708297,57.4661
1327927768297,57.4338
1327927828297,57.2617
1327927888297,57.4930
1327927948297,57.3947
1327928008297,57.3881
1327928068297,57.2912
1327928128297,57.4013
1327928188297,57.3564
1327928248297,57.3396
1327928308297,57.3558
1327928368297,57.4779
1327928428292,57.2737
1327928488292,57.4102
1327928548292,57.4684
1327928608292,57.3644
1327928668292,57.2752
1327928728292,57.2289
1327928788292,57.4255
1327928848292,57.4205
1327928908292,57.4628
1327928968292,57.2723
1327929028292,57.2670
1327929088292,57.3592
1327929628292,57.0472
1327929688292,57.3590
1327929748292,57.3984
1327929808292,57.2262
1327929868292,57.3083
1327929928292,57.4616
1327929988292,57.5148
1327930048292,57.3875
1327930108292,57.5412
1327930168292,57.5014
1327930228292,57.3775
1327930288292,57.3802
1327930348292,57.2634
1327930408292,57.3044
1327930468292,57.2794
1327930528292,57.4987
1327930588292,57.4003
1327930648292,57.5653
1327930708292,57.4256
1327930768292,57.4824
1327930828292,57.4467
1327930888292,57.4628
1327930948292,57.2915
1327931008292,57.5348
1327931068292,57.4194
1327931128292,57.4848
1327931188292,57.4555
1327931248292,57.3728
1327931308292,57.5156
1327931368292,57.3431
1327931428292,57.3914
1327931488292,57.3810
1327931548292,57.4337
1327931608292,57.2813
1327931668292,57.3256
1327931728292,57.3450
1327931788292,57.4203
1327931848292,57.3778
1327931908292,57.2907
1327931968292,57.3993
1327932028304,57.3369
1327932088304,57.3992
1327932148304,57.3607
1327932208304,57.1488
1327932268304,57.4450
1327932328304,57.3606
1327932388304,57.3385
1327932448304,57.4297
1327932508304,57.2858
1327932568304,57.1266
1327932628304,57.3669
1327932688304,57.3693
1327932748304,57.3904
1327932808304,57.3265
1327932868304,57.2803
1327932928304,57.3781
1327932988304,57.3637
1327933048304,57.3627
1327933108304,57.4092
1327933168304,57.3907
1327933228304,58.0156
1327933288304,57.3293
1327933348304,57.3531
1327933408304,57.3183
1327933468304,57.3605
1327933528304,57.2640
1327933588304,57.3661
1327933648304,57.5759
1327933708304,57.4599
1327933768304,57.3661
1327933828304,57.5275
1327933888304,57.4322
1327933948304,57.3625
1327934008304,57.3686
1327934068304,57.5271
1327934128304,57.4050
1327934188304,57.3748
1327934248304,57.3360
1327934308304,57.4384
1327934368304,57.2394
1327934428304,57.3872
1327934488304,57.4547
1327934548304,57.4033
1327934608304,57.4684
1327934668304,57.5618
1327934728304,57.4576
1327934788304,57.6196
1327934848304,57.2977
1327934908304,57.4683
1327934968304,57.3641
1327935028304,57.4484
1327935088304,57.4114
1327935148304,57.4403
1327935208304,57.4925
1327935268304,57.2112
1327935328304,57.4463
1327935388304,57.2907
1327935448304,57.3121
1327935508304,57.3310
1327935568304,57.5234
1327935628315,57.3931
1327935688315,57.3316
1327935748315,57.3335
1327935808315,57.3434
1327935868315,57.4749
1327935928315,57.3681
1327935988315,57.4617
1327936048315,57.3604
1327936108315,57.3933
1327936168315,57.2827
1327936228315,57.4279
1327936288315,57.3912
1327936348315,57.3138
1327936408315,57.3672
1327936468315,57.3428
1327936528315,57.3447
1327936588315,57.3166
1327936648315,57.2632
1327936708315,57.3461
1327936768315,57.5577
1327936828315,57.4148
1327936888315,57.3759
1327936948315,57.3254
1327937008315,57.4870
1327937068315,57.3370
1327937128315,57.2009
1327937188315,57.2783
1327937248315,57.2642
1327937308315,57.2061
1327937368315,57.3222
1327937428315,57.2848
1327937488315,57.3341
1327937548315,57.3160
1327937608315,57.3300
1327937668315,57.1807
1327937728315,57.1615
1327937788315,57.2536
1327937848315,57.1404
1327937908315,57.1705
1327937968315,57.2146
1327938028315,57.3056
1327938088315,57.3433
1327938148315,57.3073
1327938208315,57.2298
1327938268315,57.3035
1327938328315,57.2136
1327938388315,57.2524
1327938448315,57.2100
1327938508315,57.1419
1327938568315,57.2019
1327938628315,57.1369
1327938688315,57.2780
1327938748315,57.5832
1327938808315,57.2470
1327938868315,57.2150
1327938928315,57.2429
1327938988315,57.2904
1327939048315,57.2326
1327939108315,57.2374
1327939168315,57.1906
1327939228327,57.0901
1327939288327,57.1491
1327939348327,57.0581
1327939408327,57.3063
1327939468327,57.2454
1327939528327,57.1355
1327939588327,56.9854
1327939648327,57.2740
1327939708327,57.1051
1327939768327,57.1524
1327939828327,57.1891
1327939888327,57.0754
1327939948327,57.2035
1327940008327,57.1345
1327940068327,57.0502
1327940128327,57.2721
1327940188327,57.2762
1327940248327,57.0639
1327940308327,57.3293
1327940368327,57.1543
1327940428327,57.2087
1327940488327,57.2528
1327940548327,57.2489
1327940608327,57.1038
1327940668327,57.1187
1327940728327,57.3049
1327940788327,57.1553
1327940848327,57.2109
1327940908327,57.2129
1327940968327,57.0784
1327941028327,57.1205
1327941088327,57.2356
1327941148327,57.0753
1327941208327,56.9277
1327941268327,57.1234
1327941328327,57.0011
1327941388327,56.9209
1327941448326,57.1322
1327941508327,57.0211
1327941568327,56.9642
1327941628327,57.0361
1327941688327,57.0432
1327941748327,57.0457
1327941808327,57.1834
1327941868327,57.1095
1327941928327,57.0958
1327941988327,57.0903
1327942048327,57.0490
1327942108327,57.1678
1327942168327,57.0862
1327942228327,56.9745
1327942288327,57.1334
1327942348327,56.9614
1327942408327,57.0163
1327942468327,57.0902
1327942528327,56.8577
1327942588327,57.1564
1327942648327,56.9176
1327942708327,57.0245
1327942768327,57.1176
1327942828338,57.1569
1327942888338,57.0014
1327942948338,57.0175
1327943008338,57.1406
1327943068338,56.9184
1327943128338,57.0753
1327943188338,57.0220
1327943248338,57.2006
1327943308338,57.2043
1327943368338,56.9983
1327943428338,56.7570
1327943488338,57.0816
1327943548338,57.0600
1327943608338,57.1102
1327943668338,57.1024
1327943728338,57.1062
1327943788338,57.0769
1327943848338,57.0086
1327943908338,57.2071
1327943968338,56.9296
1327944028338,57.2128
1327944088338,57.2463
1327944148338,57.1873
1327944208338,57.0656
1327944268338,57.1727
1327944328338,57.0503
1327944388338,57.0729
1327944448338,57.1032
1327944508338,57.0950
1327944568338,57.0119
1327944628338,57.2449
1327944688338,56.9799
1327944748338,56.9701
1327944808338,57.1166
1327944868338,57.1189
1327944928338,57.1889
1327944988338,56.9395
1327945048338,57.1110
1327945108338,57.3120
1327945168338,57.2141
1327945228338,57.0464
1327945288338,57.1195
1327945348338,57.1632
1327945408338,57.2849
1327945468338,57.2766
1327945528338,57.1745
1327945588338,57.1360
1327945648338,57.2857
1327945708338,57.2748
1327945768338,57.2083
1327945828338,57.2941
1327945888338,57.1145
1327945948338,57.4716
1327946008338,57.2363
1327946068338,57.3425
1327946128338,57.1887
1327946188338,57.2312
1327946248338,57.2308
1327946308338,57.1958
1327946368338,57.4126
1327946428349,57.2987
1327946488349,57.2556
1327946548349,57.2345
1327946608349,57.2680
1327946668349,57.2542
1327946728349,57.0707
1327946788349,57.1840
1327946848349,57.1412
1327946908349,57.2827
1327946968349,57.3668
1327947028349,57.2838
1327947088349,57.0683
1327947148349,57.2046
1327947208349,57.1910
1327947268349,57.1229
1327947328349,57.2730
1327947388349,57.1667
1327947448349,57.2192